Home > Weather > Zhengzhou > Past weeks

Flag for China Past Weather in Zhengzhou, Henan, China — Yesterday and Last 2 Weeks

Now
91 °F

Passing clouds.


Feels Like: 108 °F
Forecast: 84 / 100 °F
Wind: 6 mph from South

Location: Zhengzhou Airport

Current Time: Jul 24, 2016 at 6:57:41 PM

Latest Report: Jul 24, 2016 at 6:00 PM


Visibility: N/A

Pressure: 29.59 "Hg

Humidity: 67%

Dew Point: 79 °F

Location of ZhengzhouLocation

Past Weather in Zhengzhou — Graph

°F

Zhengzhou Temperature Yesterday

Maximum temperature yesterday: 93 °F (at 1:00 PM)
Minimum temperature yesterday: 82 °F (at 4:00 AM)
Average temperature yesterday: 88 °F

High & Low Weather Summary for the Past Weeks

 TemperatureHumidityPressure
High97 °F (Jul 12, 3:00 PM)100% (Jul 17, 6:00 AM)29.74 "Hg (Jul 17, 6:00 AM)
Low66 °F (Jul 16, 1:00 AM)39% (Jul 12, 3:00 PM)29.39 "Hg (Jul 19, 10:00 PM)
Average81 °F79%29.60 "Hg
* Reported Jul 9 5:00 PM — Jul 24 5:00 PM, Zhengzhou, Weather by CustomWeather, © 2016

Note: Actual official high and low records may vary slightly from our data, if they occured in-between our weather recording intervals... More about our weather records

Advertising

Zhengzhou Weather History for the Previous 24 Hours

Scroll right to see more
 ConditionsComfort  
Time TempWeatherWind HumidityBarometerVisibility
5:00 PM
Sun, Jul 24
93 °FScattered clouds.6 mph59%29.62 "HgN/A
4:00 PM93 °FScattered clouds.6 mph59%29.62 "HgN/A
3:00 PM93 °FScattered clouds.8 mph59%29.62 "HgN/A
2:00 PM95 °FScattered clouds.8 mph53%29.65 "HgN/A
1:00 PM93 °FScattered clouds.8 mph56%29.65 "HgN/A
12:00 PM93 °FScattered clouds.6 mph59%29.65 "HgN/A
11:00 AM91 °FPassing clouds.6 mph63%29.65 "HgN/A
10:00 AM90 °FPassing clouds.3 mph67%29.65 "HgN/A
9:00 AM88 °FPassing clouds.3 mph75%29.68 "HgN/A
8:00 AM84 °FClear.6 mph84%29.68 "Hg4 mi
7:00 AM82 °FFog.3 mph89%29.65 "Hg3 mi
6:00 AM81 °FFog.3 mph94%29.65 "Hg2 mi
5:00 AM81 °FClear.1 mph94%29.65 "Hg4 mi
4:00 AM82 °FClear.1 mph89%29.62 "Hg4 mi
3:00 AM84 °FClear.3 mph89%29.62 "Hg4 mi
2:00 AM84 °FClear.3 mph89%29.62 "Hg4 mi
1:00 AM84 °FPassing clouds.3 mph89%29.62 "HgN/A
12:00 AM84 °FPassing clouds.3 mph89%29.62 "HgN/A
11:00 PM
Sat, Jul 23
86 °FPassing clouds.3 mph84%29.62 "HgN/A
10:00 PM86 °FPassing clouds.3 mph84%29.62 "HgN/A
9:00 PM88 °FClear.1 mph79%29.62 "Hg10 mi
8:00 PM88 °FPassing clouds.3 mph84%29.59 "HgN/A
7:00 PM90 °FPassing clouds.3 mph79%29.56 "HgN/A
6:00 PM91 °FPassing clouds.6 mph71%29.56 "HgN/A
Weather by CustomWeather, © 2016

See weather overviewHow to use our weather pages